Location: Boissi�res
(45.2500°N, 2.3667°E)
Time: 00:15:48
(UTC+00:00)

ISS - Pass Details

Date: 17 September 2021
Orbit: 417 x 423 km, 51.6° (Epoch: 18 October)

Event Time Altitude Azimuth Distance (km) Brightness Sun altitude
Rises 19:30:53 0° 233° (SW) 2,352 0.5 -16.9°
Reaches altitude 10° 19:32:58 10° 231° (SW) 1,492 -0.6 -17.2°
Maximum altitude 19:36:18 69° 147° (SSE) 451 -3.9 -17.8°
Enters shadow 19:36:48 57° 94° (E) 499 -3.8 -17.8°
